Regional Weather Roundup
Issued by NWS Albany, NY

Home | Current Version | Previous Version | Graphics & Text | Print | Product List | Glossary Off
Versions: 1 2 3 4 5 6 7 8 9 10 11 12 13 14 15 16 17 18 19 20 21 22 23 24 25 26 27 28 29 30 31 32 33 34 35 36 37 38 39 40 41 42 43 44 45 46 47 48 49 50

815
ASUS41 KALY 230410
RWRALY

NEW YORK STATE HOURLY WEATHER ROUNDUP
NATIONAL WEATHER SERVICE ALBANY NY
1200 AM EDT SUN JUL 23 2017

NOTE: "FAIR" INDICATES FEW OR NO CLOUDS BELOW 12,000 FEET WITH NO
SIGNIFICANT WEATHER AND/OR NO OBSTRUCTIONS TO VISIBILITY.

NYZ032-033-038>043-046>054-057>066-NYZ062>081-082-084-230500-
EAST


CITY           SKY/WX    TMP DP  RH WIND       PRES   REMARKS
ALBANY         MOCLDY    70  65  84 NE3       29.81S
GLENS FALLS    CLOUDY    65  61  87 CALM      29.81F
POUGHKEEPSIE   CLOUDY    71  66  84 N3        29.77S
NEWBURGH       CLOUDY    72  70  94 NE6       29.80F
MONTGOMERY     CLOUDY    72  68  87 NE3       29.78F
ISLIP          CLOUDY    77  70  79 CALM      29.76F
NEW YORK CITY  LGT RAIN  76  72  87 E9        29.74F
CENTRAL PARK   LGT RAIN  73  72  96 CALM      29.77F FOG
$$

NYZ005>009-017-018-044>046-055-056-230500-
CENTRAL


CITY           SKY/WX    TMP DP  RH WIND       PRES   REMARKS
FULTON         CLOUDY    64  62  93 CALM      29.81S FOG
SYRACUSE       MOCLDY    66  64  93 CALM      29.80F
ROME           CLOUDY    65  64  97 CALM      29.82F
ELMIRA         CLOUDY    71  68  90 CALM      29.80F
BINGHAMTON     CLOUDY    67  61  81 E6        29.83F
$$

NYZ026>034-041>043-087-230500-
NORTH


CITY           SKY/WX    TMP DP  RH WIND       PRES   REMARKS
WATERTOWN      CLOUDY    66  66 100 NE3       29.81S FOG
FORT DRUM      NOT AVBL
OGDENSBURG     FAIR      64  62  93 CALM      29.83S
MASSENA        CLEAR     65  63  93 NE3       29.84S
SARANAC LAKE   PTCLDY    55  55 100 CALM      29.86F
PLATTSBURGH    PTCLDY    61  58  90 CALM      29.83S
$$

NYZ001>004-010>016-019>021-085-230500-
WEST


CITY           SKY/WX    TMP DP  RH WIND       PRES   REMARKS
NIAGARA FALLS  LGT RAIN  71  65  81 SW6       29.80F
BUFFALO        LGT RAIN  69  67  93 N5        29.80S
DUNKIRK        CLOUDY    72  66  81 E5        29.79S
JAMESTOWN      CLOUDY    64  61  88 SE3       29.83S
WELLSVILLE     CLOUDY    67  59  75 SW5       29.86F
ROCHESTER      CLOUDY    71  67  87 E6        29.81S
PENN YAN       CLOUDY    68  63  84 CALM      29.82S
$$

             KEY
       WCI = WIND CHILL INDEX
       VSB = VISIBILITY
       HX  = HEAT INDEX
$$




USA.gov is the U.S. government's official web portal to all federal, state and local government web resources and services.